Location: Unspecified
(0.0000°N, 0.0000°E)
Time: 19:09:02
(UTC+01:00)

OPAL - Visible Passes

Search period start: 01 February 2015 00:00
Search period end: 11 February 2015 00:00
Orbit: 744 x 796 km, 100.2° (Epoch: 31 January)

Date Brightness Start Highest point End Pass type
(mag) Time Alt. Az. Time Alt. Az. Time Alt. Az.
01 Feb 8.6 19:35:52 10° N 19:40:42 47° WNW 19:45:27 10° SSW visible
02 Feb 9.9 06:29:30 10° SE 06:33:36 25° ENE 06:37:52 10° NNE visible
03 Feb 9.9 20:05:04 10° NNW 20:08:58 22° WNW 20:12:41 10° SW visible
04 Feb 8.1 19:28:45 10° N 19:33:41 63° WNW 19:38:36 10° SSW visible
05 Feb 10.2 06:23:04 10° ESE 06:26:36 20° ENE 06:30:23 10° NNE visible
06 Feb 9.5 19:57:38 10° NNW 20:01:57 29° WNW 20:06:09 10° SW visible
08 Feb 10.4 06:16:53 10° ESE 06:19:36 15° ENE 06:22:38 10° NE visible
08 Feb 10.3 20:27:46 10° NW 20:30:15 13° WNW 20:32:24 10° WSW visible
09 Feb 9.0 19:50:20 10° N 19:54:56 37° WNW 19:59:28 10° SW visible
10 Feb 9.6 06:43:24 10° SE 06:47:55 31° ENE 06:52:31 10° NNE visible
